| time (UTC) | temp C | wind direction | speed KPH | gust KPH | rain 1hr cm | rain 24hr cm | rain mn cm | humidity % | barometer mb |
| 20260507120206 | 9 | 50 | 0.0 | 0.0 | 0.00 | 0.79 | 0.79 | 99 | 1006.8 |
| 20260507115702 | 9 | 203 | 1.6 | 1.6 | 0.00 | 0.79 | 0.79 | 99 | 1006.4 |
| 20260507115158 | 9 | 28 | 0.0 | 0.0 | 0.00 | 0.79 | 0.79 | 99 | 1006.1 |
| 20260507114654 | 9 | 358 | 1.6 | 1.6 | 0.00 | 0.79 | 0.79 | 99 | 1006.3 |
| 20260507114151 | 9 | 59 | 1.6 | 3.2 | 0.00 | 0.79 | 0.79 | 99 | 1006.4 |
| 20260507113649 | 9 | 341 | 1.6 | 1.6 | 0.00 | 0.79 | 0.79 | 99 | 1006.1 |
| 20260507113145 | 9 | 26 | 0.0 | 0.0 | 0.00 | 0.79 | 0.79 | 99 | 1006.2 |
| 20260507112643 | 9 | 23 | 0.0 | 0.0 | 0.00 | 0.79 | 0.79 | 99 | 1006.2 |
| 20260507112139 | 9 | 18 | 0.0 | 0.0 | 0.00 | 0.79 | 0.79 | 99 | 1006.4 |
| 20260507111637 | 9 | 31 | 0.0 | 0.0 | 0.00 | 0.79 | 0.79 | 99 | 1006.4 |
| 20260507111133 | 9 | 37 | 0.0 | 0.0 | 0.00 | 0.79 | 0.79 | 99 | 1006.2 |
| 20260507110630 | 9 | 29 | 0.0 | 0.0 | 0.18 | 0.79 | 0.79 | 99 | 1006.1 |
| 20260507110127 | 9 | 47 | 0.0 | 0.0 | 0.30 | 0.79 | 0.79 | 99 | 1005.9 |
| 20260507105623 | 9 | 198 | 1.6 | 1.6 | 0.13 | 0.76 | 0.76 | 99 | 1006.4 |
| 20260507105119 | 8 | 31 | 0.0 | 0.0 | 0.18 | 0.74 | 0.74 | 99 | 1005.9 |
| 20260507104617 | 8 | 33 | 0.0 | 0.0 | 0.30 | 0.74 | 0.74 | 99 | 1006.1 |
| 20260507104113 | 8 | 42 | 0.0 | 0.0 | 0.13 | 0.71 | 0.71 | 99 | 1005.7 |
| 20260507103609 | 8 | 9 | 0.0 | 1.6 | 0.00 | 0.69 | 0.69 | 99 | 1005.4 |
| 20260507103106 | 8 | 33 | 1.6 | 1.6 | 0.18 | 0.69 | 0.69 | 99 | 1005.7 |
| 20260507102603 | 8 | 20 | 0.0 | 0.0 | 0.48 | 0.69 | 0.69 | 99 | 1005.6 |
| 20260507102059 | 8 | 47 | 0.0 | 0.0 | 0.48 | 0.66 | 0.66 | 99 | 1005.7 |
| 20260507101555 | 9 | 40 | 0.0 | 0.0 | 0.18 | 0.61 | 0.61 | 99 | 1006.2 |
| 20260507101051 | 9 | 5 | 0.0 | 1.6 | 0.00 | 0.58 | 0.58 | 99 | 1005.9 |
| 20260507100548 | 9 | 355 | 0.0 | 1.6 | 0.00 | 0.58 | 0.58 | 99 | 1006.1 |
| 20260507100046 | 9 | 27 | 0.0 | 0.0 | 0.13 | 0.58 | 0.58 | 99 | 1005.9 |
| 20260507095544 | 9 | 26 | 0.0 | 1.6 | 0.13 | 0.58 | 0.58 | 99 | 1005.8 |
| 20260507095040 | 9 | 21 | 0.0 | 0.0 | 0.13 | 0.58 | 0.58 | 99 | 1005.8 |
| 20260507094536 | 9 | 310 | 3.2 | 3.2 | 0.18 | 0.56 | 0.56 | 99 | 1005.8 |
| 20260507094034 | 9 | 32 | 1.6 | 1.6 | 0.18 | 0.56 | 0.56 | 99 | 1005.5 |
| 20260507093531 | 9 | 34 | 0.0 | 0.0 | 0.00 | 0.53 | 0.53 | 99 | 1005.7 |
| 20260507093030 | 9 | 4 | 1.6 | 3.2 | 0.00 | 0.53 | 0.53 | 99 | 1005.2 |
| 20260507092526 | 9 | 6 | 0.0 | 0.0 | 0.00 | 0.53 | 0.53 | 99 | 1005.4 |
| 20260507092023 | 9 | 27 | 0.0 | 0.0 | 0.00 | 0.53 | 0.53 | 99 | 1005.5 |
| 20260507091519 | 9 | 25 | 0.0 | 0.0 | 0.00 | 0.53 | 0.53 | 99 | 1005.6 |
| 20260507091015 | 9 | 326 | 3.2 | 3.2 | 0.00 | 0.53 | 0.53 | 99 | 1005.2 |
| 20260507090511 | 9 | 9 | 1.6 | 1.6 | 0.00 | 0.53 | 0.53 | 99 | 1005.3 |
| 20260507090008 | 9 | 30 | 0.0 | 0.0 | 0.13 | 0.53 | 0.53 | 99 | 1005.5 |
| 20260507085505 | 9 | 329 | 1.6 | 1.6 | 0.13 | 0.53 | 0.53 | 99 | 1005.3 |
| 20260507085002 | 9 | 349 | 3.2 | 3.2 | 0.00 | 0.51 | 0.51 | 99 | 1005.4 |
| 20260507084459 | 9 | 48 | 0.0 | 1.6 | 0.00 | 0.51 | 0.51 | 98 | 1004.9 |
| 20260507083956 | 9 | 92 | 1.6 | 3.2 | 0.18 | 0.51 | 0.51 | 98 | 1005.2 |
| 20260507083452 | 9 | 334 | 3.2 | 3.2 | 0.18 | 0.51 | 0.51 | 98 | 1005.2 |
| 20260507082949 | 10 | 6 | 4.8 | 4.8 | 0.13 | 0.48 | 0.48 | 98 | 1005.1 |
| 20260507082445 | 10 | 16 | 1.6 | 1.6 | 0.13 | 0.48 | 0.48 | 97 | 1005.2 |
| 20260507081941 | 10 | 16 | 4.8 | 4.8 | 0.00 | 0.46 | 0.46 | 97 | 1005.1 |
| 20260507081438 | 10 | 350 | 1.6 | 1.6 | 0.18 | 0.46 | 0.46 | 97 | 1005.1 |
| 20260507080935 | 10 | 286 | 1.6 | 1.6 | 0.48 | 0.46 | 0.46 | 97 | 1005.2 |
| 20260507080431 | 10 | 7 | 1.6 | 1.6 | 0.43 | 0.43 | 0.43 | 97 | 1004.8 |
| 20260507075926 | 10 | 25 | 4.8 | 8.0 | 0.30 | 0.38 | 0.38 | 97 | 1005.4 |
| 20260507075423 | 10 | 19 | 1.6 | 1.6 | 0.18 | 0.36 | 0.36 | 97 | 1005.9 |
| 20260507074919 | 10 | 330 | 3.2 | 3.2 | 0.30 | 0.33 | 0.33 | 96 | 1005.6 |
| 20260507074416 | 10 | 353 | 3.2 | 3.2 | 0.89 | 0.33 | 0.33 | 95 | 1005.6 |
| 20260507073914 | 11 | 22 | 0.0 | 0.0 | 1.02 | 0.30 | 0.30 | 95 | 1005.6 |
| 20260507073410 | 11 | 103 | 1.6 | 3.2 | 0.89 | 0.20 | 0.20 | 93 | 1005.4 |
| 20260507072907 | 11 | 293 | 3.2 | 3.2 | 0.43 | 0.10 | 0.10 | 91 | 1005.4 |
| 20260507072405 | 12 | 307 | 3.2 | 3.2 | 0.30 | 0.05 | 0.05 | 86 | 1005.1 |
| 20260507071902 | 12 | 5 | 0.0 | 0.0 | 0.18 | 0.03 | 0.03 | 84 | 1004.7 |
| 20260507071359 | 12 | 53 | 0.0 | 0.0 | 0.00 | 0.00 | 0.00 | 84 | 1004.2 |
| 20260507070855 | 12 | 1 | 3.2 | 4.8 | 0.00 | 0.00 | 0.00 | 84 | 1004.2 |
| 20260507070353 | 12 | 304 | 3.2 | 3.2 | 0.00 | 0.00 | 0.00 | 85 | 1004.2 |
| 20260507065849 | 12 | 34 | 1.6 | 1.6 | 0.00 | 0.00 | 0.00 | 85 | 1004.2 |
| 20260507065346 | 12 | 351 | 1.6 | 3.2 | 0.00 | 0.00 | 0.00 | 85 | 1004.2 |
| 20260507064843 | 12 | 342 | 3.2 | 3.2 | 0.00 | 0.00 | 0.00 | 86 | 1004.1 |
| 20260507064342 | 12 | 58 | 3.2 | 4.8 | 0.00 | 0.00 | 0.00 | 90 | 1004.3 |
| 20260507063839 | 13 | 2 | 4.8 | 9.7 | 0.00 | 0.00 | 0.00 | 93 | 1004.5 |
| 20260507063336 | 13 | 14 | 4.8 | 4.8 | 0.00 | 0.00 | 0.00 | 93 | 1004.3 |
| 20260507062832 | 13 | 351 | 1.6 | 1.6 | 0.00 | 0.00 | 0.00 | 93 | 1004.2 |
| 20260507062329 | 13 | 350 | 3.2 | 3.2 | 0.00 | 0.00 | 0.00 | 93 | 1004.3 |
| 20260507061828 | 13 | 226 | 4.8 | 4.8 | 0.00 | 0.00 | 0.00 | 94 | 1004.3 |
| 20260507061325 | 13 | 287 | 1.6 | 3.2 | 0.00 | 0.00 | 0.00 | 94 | 1004.2 |
| 20260507060824 | 13 | 25 | 1.6 | 1.6 | 0.00 | 0.00 | 0.00 | 95 | 1004.3 |
| 20260507060320 | 13 | 28 | 3.2 | 3.2 | 0.00 | 0.00 | 0.00 | 95 | 1004.3 |
| 20260507055816 | 13 | 26 | 0.0 | 0.0 | 0.00 | 0.00 | 0.00 | 95 | 1004.5 |
| 20260507055311 | 14 | 350 | 1.6 | 3.2 | 0.00 | 0.00 | 0.00 | 95 | 1004.4 |
| 20260507054808 | 14 | 30 | 0.0 | 1.6 | 0.00 | 0.00 | 0.00 | 95 | 1004.7 |
| 20260507054304 | 14 | 26 | 1.6 | 1.6 | 0.00 | 0.00 | 0.00 | 95 | 1004.6 |
| 20260507053802 | 14 | 48 | 1.6 | 3.2 | 0.00 | 0.00 | 0.00 | 95 | 1004.5 |
| 20260507053300 | 14 | 339 | 1.6 | 3.2 | 0.00 | 0.00 | 0.00 | 94 | 1004.7 |
| 20260507052759 | 14 | 2 | 1.6 | 1.6 | 0.00 | 0.00 | 0.00 | 94 | 1004.7 |
| 20260507052254 | 14 | 32 | 0.0 | 1.6 | 0.00 | 0.00 | 0.00 | 94 | 1004.7 |
| 20260507051753 | 14 | 22 | 0.0 | 0.0 | 0.00 | 0.00 | 0.00 | 94 | 1004.8 |
| 20260507051249 | 14 | 20 | 0.0 | 1.6 | 0.00 | 0.00 | 0.00 | 94 | 1004.8 |
| 20260507050746 | 15 | 356 | 0.0 | 0.0 | 0.00 | 0.00 | 0.00 | 95 | 1004.7 |
| 20260507050243 | 15 | 326 | 1.6 | 1.6 | 0.00 | 0.00 | 0.00 | 95 | 1004.8 |
| 20260507045740 | 15 | 353 | 1.6 | 1.6 | 0.00 | 0.00 | 0.00 | 95 | 1004.8 |
| 20260507045236 | 15 | 330 | 1.6 | 1.6 | 0.00 | 0.00 | 0.00 | 96 | 1004.7 |
| 20260507044733 | 14 | 27 | 1.6 | 1.6 | 0.00 | 0.00 | 0.00 | 97 | 1004.9 |
| 20260507044229 | 15 | 293 | 3.2 | 3.2 | 0.00 | 0.00 | 0.00 | 97 | 1005.0 |
| 20260507043725 | 15 | 347 | 1.6 | 3.2 | 0.00 | 0.00 | 0.00 | 98 | 1004.8 |
| 20260507043223 | 15 | 334 | 1.6 | 1.6 | 0.00 | 0.00 | 0.00 | 98 | 1004.8 |
| 20260507042719 | 15 | 340 | 1.6 | 1.6 | 0.00 | 0.00 | 0.00 | 99 | 1004.8 |
| 20260507042214 | 15 | 240 | 1.6 | 1.6 | 0.00 | 0.00 | 0.00 | 99 | 1004.9 |
| 20260507041712 | 15 | 313 | 1.6 | 1.6 | 0.00 | 0.00 | 0.00 | 99 | 1005.0 |
| 20260507041208 | 15 | 335 | 1.6 | 1.6 | 0.00 | 0.00 | 0.00 | 99 | 1004.5 |
| 20260507040705 | 15 | 31 | 0.0 | 0.0 | 0.00 | 0.00 | 0.00 | 99 | 1004.8 |
| 20260507040201 | 15 | 29 | 0.0 | 0.0 | 0.00 | 0.00 | 0.00 | 99 | 1004.8 |
| 20260507035657 | 15 | 356 | 1.6 | 1.6 | 0.00 | 0.13 | 0.13 | 99 | 1004.8 |
| 20260507035153 | 14 | 36 | 0.0 | 0.0 | 0.00 | 0.13 | 0.13 | 99 | 1004.8 |
| 20260507034650 | 14 | 44 | 0.0 | 0.0 | 0.00 | 0.13 | 0.13 | 99 | 1004.8 |
| 20260507034148 | 14 | 34 | 0.0 | 0.0 | 0.00 | 0.13 | 0.13 | 99 | 1004.5 |
| 20260507033646 | 14 | 51 | 0.0 | 0.0 | 0.00 | 0.13 | 0.13 | 99 | 1004.7 |
| 20260507033143 | 14 | 42 | 0.0 | 1.6 | 0.00 | 0.13 | 0.13 | 99 | 1004.7 |
| 20260507032641 | 14 | 344 | 1.6 | 3.2 | 0.00 | 0.13 | 0.13 | 99 | 1005.1 |
| 20260507032136 | 14 | 316 | 0.0 | 1.6 | 0.00 | 0.13 | 0.13 | 99 | 1005.1 |
| 20260507031633 | 14 | 30 | 0.0 | 0.0 | 0.00 | 0.13 | 0.13 | 99 | 1004.8 |
| 20260507031130 | 14 | 319 | 0.0 | 1.6 | 0.00 | 0.13 | 0.13 | 99 | 1004.8 |
| 20260507030626 | 14 | 42 | 0.0 | 0.0 | 0.00 | 0.13 | 0.13 | 99 | 1004.7 |
| 20260507030125 | 14 | 38 | 0.0 | 0.0 | 0.00 | 0.13 | 0.13 | 99 | 1004.8 |
| 20260507025621 | 14 | 47 | 0.0 | 0.0 | 0.00 | 0.13 | 0.13 | 99 | 1004.5 |
| 20260507025118 | 14 | 47 | 0.0 | 0.0 | 0.00 | 0.13 | 0.13 | 99 | 1004.7 |
| 20260507024616 | 14 | 68 | 1.6 | 1.6 | 0.00 | 0.13 | 0.13 | 99 | 1004.7 |
| 20260507024108 | 14 | 45 | 0.0 | 0.0 | 0.00 | 0.13 | 0.13 | 99 | 1004.6 |
| 20260507023603 | 14 | 40 | 0.0 | 0.0 | 0.00 | 0.13 | 0.13 | 99 | 1004.7 |
| 20260507023101 | 14 | 31 | 0.0 | 1.6 | 0.00 | 0.13 | 0.13 | 99 | 1004.7 |
| 20260507022558 | 13 | 18 | 0.0 | 0.0 | 0.00 | 0.13 | 0.13 | 99 | 1004.9 |
| 20260507022053 | 13 | 23 | 0.0 | 0.0 | 0.00 | 0.13 | 0.13 | 99 | 1004.8 |
| 20260507021549 | 13 | 77 | 1.6 | 1.6 | 0.00 | 0.13 | 0.13 | 99 | 1004.8 |
| 20260507021045 | 13 | 20 | 1.6 | 1.6 | 0.00 | 0.13 | 0.13 | 99 | 1004.7 |
| 20260507020544 | 13 | 20 | 1.6 | 1.6 | 0.00 | 0.13 | 0.13 | 99 | 1004.6 |
| 20260507020039 | 13 | 34 | 0.0 | 1.6 | 0.00 | 0.13 | 0.13 | 99 | 1004.6 |
| 20260507015538 | 13 | 69 | 0.0 | 1.6 | 0.00 | 0.13 | 0.13 | 99 | 1004.6 |
| 20260507015035 | 13 | 31 | 0.0 | 0.0 | 0.00 | 0.13 | 0.13 | 99 | 1004.9 |
| 20260507014532 | 13 | 17 | 0.0 | 0.0 | 0.00 | 0.13 | 0.13 | 99 | 1004.8 |
| 20260507014027 | 13 | 33 | 0.0 | 0.0 | 0.00 | 0.13 | 0.13 | 99 | 1004.8 |
| 20260507013524 | 13 | 21 | 0.0 | 0.0 | 0.00 | 0.13 | 0.13 | 99 | 1004.8 |
| 20260507013022 | 13 | 37 | 0.0 | 0.0 | 0.00 | 0.13 | 0.13 | 99 | 1004.8 |
| 20260507012519 | 13 | 60 | 1.6 | 1.6 | 0.00 | 0.13 | 0.13 | 99 | 1004.9 |
| 20260507012015 | 13 | 7 | 1.6 | 3.2 | 0.00 | 0.13 | 0.13 | 99 | 1005.1 |
| 20260507011513 | 13 | 31 | 0.0 | 0.0 | 0.00 | 0.13 | 0.13 | 99 | 1005.1 |
| 20260507011008 | 13 | 43 | 0.0 | 0.0 | 0.00 | 0.13 | 0.13 | 99 | 1005.0 |
| 20260507010503 | 13 | 42 | 0.0 | 0.0 | 0.00 | 0.13 | 0.13 | 99 | 1005.0 |
| 20260507010000 | 13 | 50 | 0.0 | 0.0 | 0.00 | 0.13 | 0.13 | 99 | 1005.2 |
| 20260507005457 | 13 | 87 | 0.0 | 1.6 | 0.00 | 0.13 | 0.13 | 99 | 1005.2 |
| 20260507004953 | 13 | 25 | 0.0 | 1.6 | 0.00 | 0.13 | 0.13 | 99 | 1005.2 |
| 20260507004450 | 13 | 77 | 1.6 | 3.2 | 0.00 | 0.13 | 0.13 | 99 | 1005.2 |
| 20260507003948 | 13 | 358 | 3.2 | 4.8 | 0.00 | 0.13 | 0.13 | 99 | 1005.2 |
| 20260507003443 | 13 | 73 | 1.6 | 1.6 | 0.00 | 0.13 | 0.13 | 99 | 1005.0 |
| 20260507002938 | 13 | 57 | 1.6 | 3.2 | 0.00 | 0.13 | 0.13 | 99 | 1005.1 |
| 20260507002435 | 13 | 70 | 1.6 | 1.6 | 0.00 | 0.13 | 0.13 | 99 | 1005.0 |
| 20260507001932 | 13 | 262 | 1.6 | 1.6 | 0.00 | 0.13 | 0.13 | 99 | 1004.9 |
| 20260507001428 | 13 | 60 | 1.6 | 1.6 | 0.00 | 0.13 | 0.13 | 99 | 1005.1 |
| 20260507000926 | 13 | 40 | 0.0 | 0.0 | 0.00 | 0.13 | 0.13 | 99 | 1005.0 |
| 20260507000421 | 13 | 31 | 0.0 | 0.0 | 0.00 | 0.13 | 0.13 | 99 | 1005.0 |
| 20260506235917 | 13 | 45 | 1.6 | 1.6 | 0.00 | 0.13 | 0.13 | 99 | 1005.1 |
| 20260506235415 | 13 | 93 | 1.6 | 1.6 | 0.00 | 0.13 | 0.13 | 99 | 1005.0 |
| 20260506234910 | 13 | 42 | 0.0 | 1.6 | 0.00 | 0.13 | 0.13 | 99 | 1004.8 |
| 20260506234408 | 13 | 358 | 1.6 | 3.2 | 0.00 | 0.13 | 0.13 | 99 | 1004.8 |
| 20260506233906 | 13 | 27 | 0.0 | 0.0 | 0.00 | 0.13 | 0.13 | 99 | 1004.8 |
| 20260506233401 | 13 | 77 | 0.0 | 1.6 | 0.00 | 0.13 | 0.13 | 99 | 1004.9 |
| 20260506232858 | 13 | 26 | 0.0 | 1.6 | 0.00 | 0.13 | 0.13 | 99 | 1004.9 |
| 20260506232354 | 13 | 92 | 3.2 | 3.2 | 0.00 | 0.13 | 0.13 | 99 | 1004.8 |
| 20260506231850 | 13 | 245 | 1.6 | 3.2 | 0.00 | 0.13 | 0.13 | 99 | 1005.0 |
| 20260506231348 | 13 | 28 | 0.0 | 0.0 | 0.00 | 0.13 | 0.13 | 99 | 1005.0 |
| 20260506230846 | 13 | 25 | 0.0 | 1.6 | 0.00 | 0.13 | 0.13 | 99 | 1004.8 |
| 20260506230342 | 13 | 205 | 3.2 | 3.2 | 0.18 | 0.13 | 0.13 | 99 | 1004.8 |
| 20260506225838 | 13 | 96 | 3.2 | 3.2 | 0.18 | 0.13 | 0.13 | 99 | 1004.9 |
| 20260506225336 | 13 | 12 | 1.6 | 3.2 | 0.00 | 0.10 | 0.10 | 99 | 1004.9 |
| 20260506224833 | 13 | 14 | 0.0 | 0.0 | 0.00 | 0.10 | 0.10 | 99 | 1004.9 |
| 20260506224330 | 13 | 36 | 0.0 | 0.0 | 0.00 | 0.10 | 0.10 | 99 | 1004.9 |
| 20260506223826 | 13 | 60 | 1.6 | 1.6 | 0.00 | 0.10 | 0.10 | 99 | 1004.8 |
| 20260506223321 | 14 | 334 | 1.6 | 3.2 | 0.00 | 0.10 | 0.10 | 99 | 1004.6 |
| 20260506222819 | 14 | 74 | 1.6 | 1.6 | 0.00 | 0.10 | 0.10 | 99 | 1004.7 |
| 20260506222314 | 14 | 137 | 4.8 | 4.8 | 0.13 | 0.10 | 0.10 | 99 | 1004.8 |
| 20260506221813 | 14 | 57 | 0.0 | 1.6 | 0.13 | 0.10 | 0.10 | 99 | 1004.7 |
| 20260506221310 | 14 | 50 | 4.8 | 4.8 | 0.00 | 0.08 | 0.08 | 99 | 1004.8 |
| 20260506220807 | 14 | 328 | 1.6 | 1.6 | 0.00 | 0.08 | 0.08 | 99 | 1005.2 |
| 20260506220302 | 14 | 330 | 1.6 | 3.2 | 0.00 | 0.08 | 0.08 | 98 | 1005.0 |
| 20260506215759 | 15 | 24 | 3.2 | 3.2 | 0.00 | 0.08 | 0.08 | 98 | 1005.2 |
| 20260506215255 | 15 | 65 | 4.8 | 4.8 | 0.18 | 0.08 | 0.08 | 97 | 1005.2 |
| 20260506214751 | 15 | 335 | 1.6 | 3.2 | 0.18 | 0.08 | 0.08 | 97 | 1005.3 |
| 20260506214248 | 15 | 12 | 0.0 | 0.0 | 0.00 | 0.05 | 0.05 | 97 | 1005.1 |
| 20260506213746 | 15 | 61 | 1.6 | 1.6 | 0.00 | 0.05 | 0.05 | 96 | 1005.2 |
| 20260506213243 | 15 | 344 | 0.0 | 1.6 | 0.00 | 0.05 | 0.05 | 95 | 1005.3 |
| 20260506212740 | 15 | 314 | 3.2 | 3.2 | 0.00 | 0.05 | 0.05 | 95 | 1005.2 |
| 20260506212236 | 15 | 21 | 1.6 | 1.6 | 0.00 | 0.05 | 0.05 | 94 | 1005.4 |
| 20260506211731 | 15 | 298 | 6.4 | 9.7 | 0.00 | 0.05 | 0.05 | 94 | 1005.3 |
| 20260506211228 | 15 | 250 | 3.2 | 4.8 | 0.00 | 0.05 | 0.05 | 94 | 1005.4 |
| 20260506210725 | 15 | 91 | 3.2 | 4.8 | 0.00 | 0.05 | 0.05 | 94 | 1005.6 |
| 20260506210222 | 15 | 21 | 0.0 | 1.6 | 0.00 | 0.05 | 0.05 | 95 | 1005.4 |
| 20260506205719 | 15 | 29 | 3.2 | 3.2 | 0.00 | 0.05 | 0.05 | 95 | 1005.6 |
| 20260506205214 | 15 | 56 | 0.0 | 1.6 | 0.00 | 0.05 | 0.05 | 95 | 1005.5 |
| 20260506204712 | 15 | 336 | 1.6 | 4.8 | 0.13 | 0.05 | 0.05 | 95 | 1005.5 |
| 20260506204209 | 15 | 293 | 0.0 | 1.6 | 0.13 | 0.05 | 0.05 | 95 | 1005.7 |
| 20260506203707 | 15 | 69 | 1.6 | 3.2 | 0.00 | 0.03 | 0.03 | 95 | 1006.1 |
| 20260506203203 | 15 | 43 | 1.6 | 1.6 | 0.00 | 0.03 | 0.03 | 95 | 1005.7 |
| 20260506202702 | 15 | 25 | 0.0 | 0.0 | 0.00 | 0.03 | 0.03 | 94 | 1005.7 |
| 20260506202157 | 15 | 80 | 3.2 | 4.8 | 0.00 | 0.03 | 0.03 | 94 | 1005.8 |
| 20260506201654 | 15 | 18 | 3.2 | 4.8 | 0.00 | 0.03 | 0.03 | 94 | 1005.7 |
| 20260506201150 | 15 | 67 | 1.6 | 1.6 | 0.00 | 0.03 | 0.03 | 94 | 1005.8 |
| 20260506200648 | 15 | 125 | 3.2 | 4.8 | 0.00 | 0.03 | 0.03 | 93 | 1005.9 |
| 20260506200144 | 15 | 295 | 6.4 | 8.0 | 0.00 | 0.03 | 0.03 | 93 | 1006.1 |
| 20260506195641 | 15 | 207 | 4.8 | 8.0 | 0.00 | 0.03 | 0.03 | 93 | 1005.8 |
| 20260506195137 | 16 | 167 | 3.2 | 4.8 | 0.00 | 0.03 | 0.03 | 92 | 1005.8 |
| 20260506194635 | 16 | 351 | 1.6 | 1.6 | 0.00 | 0.03 | 0.03 | 92 | 1005.6 |
| 20260506194131 | 16 | 57 | 1.6 | 3.2 | 0.18 | 0.03 | 0.03 | 91 | 1006.1 |
| 20260506193629 | 16 | 108 | 1.6 | 3.2 | 0.18 | 0.03 | 0.03 | 90 | 1005.9 |
| 20260506193126 | 16 | 61 | 1.6 | 1.6 | 0.00 | 0.00 | 0.00 | 89 | 1006.2 |
| 20260506192622 | 16 | 80 | 3.2 | 3.2 | 0.00 | 0.00 | 0.00 | 87 | 1006.1 |
| 20260506192118 | 16 | 56 | 1.6 | 1.6 | 0.00 | 0.00 | 0.00 | 85 | 1006.2 |
| 20260506191615 | 17 | 215 | 1.6 | 3.2 | 0.00 | 0.00 | 0.00 | 85 | 1006.2 |
| 20260506191111 | 17 | 11 | 4.8 | 4.8 | 0.00 | 0.00 | 0.00 | 83 | 1006.2 |
| 20260506190609 | 17 | 82 | 1.6 | 3.2 | 0.00 | 0.00 | 0.00 | 83 | 1006.3 |
| 20260506190105 | 17 | 70 | 3.2 | 3.2 | 0.00 | 0.00 | 0.00 | 80 | 1006.3 |
| 20260506185603 | 17 | 72 | 3.2 | 3.2 | 0.00 | 0.00 | 0.00 | 78 | 1006.2 |
| 20260506185059 | 17 | 55 | 4.8 | 11.3 | 0.00 | 0.00 | 0.00 | 77 | 1006.5 |
| 20260506184556 | 18 | 82 | 3.2 | 4.8 | 0.00 | 0.00 | 0.00 | 77 | 1006.3 |
| 20260506184054 | 18 | 11 | 4.8 | 8.0 | 0.00 | 0.00 | 0.00 | 76 | 1006.2 |
| 20260506183549 | 18 | 108 | 3.2 | 3.2 | 0.00 | 0.00 | 0.00 | 75 | 1006.3 |
| 20260506183046 | 18 | 193 | 1.6 | 3.2 | 0.00 | 0.00 | 0.00 | 76 | 1006.5 |
| 20260506182544 | 18 | 307 | 6.4 | 9.7 | 0.00 | 0.00 | 0.00 | 74 | 1006.6 |
| 20260506182041 | 18 | 231 | 4.8 | 4.8 | 0.00 | 0.00 | 0.00 | 74 | 1006.5 |
| 20260506181539 | 18 | 77 | 1.6 | 1.6 | 0.00 | 0.00 | 0.00 | 73 | 1006.4 |
| 20260506181035 | 18 | 70 | 1.6 | 1.6 | 0.00 | 0.00 | 0.00 | 74 | 1006.6 |
| 20260506180532 | 19 | 212 | 4.8 | 4.8 | 0.00 | 0.00 | 0.00 | 72 | 1006.2 |
| 20260506180028 | 19 | 322 | 1.6 | 3.2 | 0.00 | 0.00 | 0.00 | 72 | 1006.6 |
| 20260506175525 | 19 | 331 | 3.2 | 3.2 | 0.00 | 0.00 | 0.00 | 72 | 1006.6 |
| 20260506175021 | 20 | 136 | 3.2 | 4.8 | 0.00 | 0.00 | 0.00 | 71 | 1006.7 |
| 20260506174520 | 20 | 7 | 4.8 | 4.8 | 0.00 | 0.00 | 0.00 | 70 | 1006.6 |
| 20260506174016 | 20 | 16 | 4.8 | 8.0 | 0.00 | 0.00 | 0.00 | 70 | 1006.7 |
| 20260506173514 | 20 | 102 | 4.8 | 9.7 | 0.00 | 0.00 | 0.00 | 69 | 1006.9 |
| 20260506173010 | 20 | 48 | 3.2 | 3.2 | 0.00 | 0.00 | 0.00 | 68 | 1006.8 |
| 20260506172508 | 20 | 273 | 3.2 | 4.8 | 0.00 | 0.00 | 0.00 | 69 | 1007.0 |
| 20260506172004 | 21 | 52 | 6.4 | 8.0 | 0.00 | 0.00 | 0.00 | 67 | 1006.9 |
| 20260506171501 | 21 | 246 | 3.2 | 4.8 | 0.00 | 0.00 | 0.00 | 66 | 1007.1 |
| 20260506170959 | 21 | 264 | 4.8 | 8.0 | 0.00 | 0.00 | 0.00 | 68 | 1006.9 |
| 20260506170455 | 21 | 72 | 4.8 | 8.0 | 0.00 | 0.00 | 0.00 | 67 | 1006.8 |
| 20260506165948 | 21 | 106 | 4.8 | 4.8 | 0.00 | 0.00 | 0.00 | 64 | 1006.8 |
| 20260506165447 | 22 | 20 | 4.8 | 8.0 | 0.00 | 0.00 | 0.00 | 65 | 1006.8 |
| 20260506164942 | 22 | 304 | 4.8 | 8.0 | 0.00 | 0.00 | 0.00 | 63 | 1006.8 |
| 20260506164439 | 21 | 173 | 4.8 | 8.0 | 0.00 | 0.00 | 0.00 | 66 | 1007.0 |
| 20260506163937 | 21 | 83 | 6.4 | 8.0 | 0.00 | 0.00 | 0.00 | 66 | 1007.2 |
| 20260506163431 | 21 | 64 | 3.2 | 4.8 | 0.00 | 0.00 | 0.00 | 66 | 1007.4 |
| 20260506162926 | 21 | 10 | 1.6 | 3.2 | 0.00 | 0.00 | 0.00 | 66 | 1007.3 |
| 20260506162424 | 21 | 271 | 6.4 | 9.7 | 0.00 | 0.00 | 0.00 | 66 | 1007.6 |
| 20260506161921 | 21 | 101 | 4.8 | 8.0 | 0.00 | 0.00 | 0.00 | 64 | 1007.5 |
| 20260506161420 | 21 | 287 | 1.6 | 3.2 | 0.00 | 0.00 | 0.00 | 67 | 1007.4 |
| 20260506160911 | 21 | 166 | 4.8 | 8.0 | 0.00 | 0.00 | 0.00 | 65 | 1007.6 |
| 20260506160408 | 21 | 38 | 1.6 | 1.6 | 0.00 | 0.00 | 0.00 | 66 | 1007.7 |
| 20260506155906 | 21 | 85 | 4.8 | 8.0 | 0.00 | 0.00 | 0.00 | 66 | 1007.6 |
| 20260506155403 | 22 | 351 | 1.6 | 1.6 | 0.00 | 0.00 | 0.00 | 66 | 1007.7 |
| 20260506153525 | 22 | 62 | 4.8 | 4.8 | 0.00 | 0.00 | 0.00 | 65 | 1007.7 |
| 20260506153023 | 22 | 116 | 1.6 | 1.6 | 0.00 | 0.00 | 0.00 | 66 | 1007.9 |
| 20260506152519 | 22 | 359 | 3.2 | 4.8 | 0.00 | 0.00 | 0.00 | 64 | 1008.0 |
| 20260506152018 | 22 | 56 | 1.6 | 1.6 | 0.00 | 0.00 | 0.00 | 67 | 1008.0 |
| 20260506151515 | 22 | 220 | 6.4 | 11.3 | 0.00 | 0.00 | 0.00 | 64 | 1008.2 |
| 20260506151012 | 21 | 311 | 3.2 | 4.8 | 0.00 | 0.00 | 0.00 | 65 | 1008.2 |
| 20260506150508 | 21 | 125 | 6.4 | 9.7 | 0.00 | 0.00 | 0.00 | 67 | 1008.3 |
| 20260506150005 | 21 | 202 | 8.0 | 9.7 | 0.00 | 0.00 | 0.00 | 67 | 1008.2 |
| 20260506145502 | 21 | 76 | 1.6 | 3.2 | 0.00 | 0.00 | 0.00 | 68 | 1008.3 |
| 20260506144959 | 21 | 331 | 1.6 | 1.6 | 0.00 | 0.00 | 0.00 | 67 | 1008.2 |
| 20260506144456 | 21 | 240 | 3.2 | 3.2 | 0.00 | 0.00 | 0.00 | 70 | 1008.1 |
| 20260506143954 | 21 | 91 | 1.6 | 3.2 | 0.00 | 0.00 | 0.00 | 67 | 1008.2 |
| 20260506143451 | 21 | 65 | 1.6 | 3.2 | 0.00 | 0.00 | 0.00 | 68 | 1008.0 |
| 20260506142949 | 21 | 90 | 4.8 | 4.8 | 0.00 | 0.00 | 0.00 | 67 | 1008.2 |
| 20260506142446 | 21 | 203 | 4.8 | 4.8 | 0.00 | 0.00 | 0.00 | 68 | 1007.9 |
| 20260506141944 | 21 | 48 | 1.6 | 3.2 | 0.00 | 0.00 | 0.00 | 67 | 1007.8 |
| 20260506141442 | 21 | 65 | 3.2 | 3.2 | 0.00 | 0.00 | 0.00 | 66 | 1008.0 |
| 20260506140941 | 21 | 160 | 4.8 | 4.8 | 0.00 | 0.00 | 0.00 | 65 | 1008.2 |
| 20260506140437 | 21 | 115 | 0.0 | 1.6 | 0.00 | 0.00 | 0.00 | 66 | 1008.1 |
| 20260506135934 | 21 | 94 | 4.8 | 8.0 | 0.00 | 0.00 | 0.00 | 65 | 1008.0 |
| 20260506135431 | 21 | 83 | 4.8 | 4.8 | 0.00 | 0.00 | 0.00 | 67 | 1008.0 |
| 20260506134927 | 21 | 330 | 3.2 | 4.8 | 0.00 | 0.00 | 0.00 | 67 | 1007.8 |
| 20260506134423 | 20 | 65 | 1.6 | 3.2 | 0.00 | 0.00 | 0.00 | 68 | 1008.0 |
| 20260506133920 | 20 | 129 | 4.8 | 8.0 | 0.00 | 0.00 | 0.00 | 68 | 1008.1 |
| 20260506133417 | 21 | 10 | 3.2 | 3.2 | 0.00 | 0.00 | 0.00 | 67 | 1008.3 |
| 20260506132914 | 21 | 101 | 8.0 | 11.3 | 0.00 | 0.00 | 0.00 | 69 | 1008.6 |
| 20260506132411 | 21 | 24 | 0.0 | 1.6 | 0.00 | 0.00 | 0.00 | 72 | 1008.5 |
| 20260506131909 | 20 | 200 | 1.6 | 3.2 | 0.00 | 0.00 | 0.00 | 71 | 1008.7 |
| 20260506131405 | 20 | 255 | 4.8 | 8.0 | 0.00 | 0.00 | 0.00 | 71 | 1008.7 |
| 20260506130902 | 20 | 279 | 1.6 | 3.2 | 0.00 | 0.00 | 0.00 | 74 | 1008.8 |
| 20260506130358 | 18 | 60 | 0.0 | 1.6 | 0.00 | 0.00 | 0.00 | 75 | 1008.7 |
| 20260506125856 | 19 | 315 | 1.6 | 3.2 | 0.00 | 0.00 | 0.00 | 75 | 1008.7 |
| 20260506125355 | 19 | 71 | 1.6 | 3.2 | 0.00 | 0.00 | 0.00 | 76 | 1008.7 |
| 20260506124853 | 18 | 87 | 3.2 | 3.2 | 0.00 | 0.00 | 0.00 | 77 | 1008.8 |
| 20260506124349 | 18 | 244 | 6.4 | 11.3 | 0.00 | 0.00 | 0.00 | 77 | 1008.8 |
| 20260506123847 | 17 | 28 | 3.2 | 3.2 | 0.00 | 0.00 | 0.00 | 79 | 1008.7 |
| 20260506123345 | 17 | 32 | 0.0 | 0.0 | 0.00 | 0.00 | 0.00 | 81 | 1008.8 |
| 20260506122842 | 17 | 90 | 3.2 | 3.2 | 0.00 | 0.00 | 0.00 | 80 | 1008.8 |
| 20260506122339 | 17 | 237 | 3.2 | 3.2 | 0.00 | 0.00 | 0.00 | 80 | 1008.8 |
| 20260506121837 | 17 | 216 | 3.2 | 3.2 | 0.00 | 0.00 | 0.00 | 80 | 1008.8 |
| 20260506121334 | 17 | 91 | 3.2 | 4.8 | 0.00 | 0.00 | 0.00 | 79 | 1008.6 |
| 20260506120831 | 17 | 201 | 1.6 | 1.6 | 0.00 | 0.00 | 0.00 | 81 | 1008.8 |